Location: *
(60.1759°S, 155.0663°W)
Time: 08:28:25
(UTC+00:00)

Landsat 5 - Pass Details

Date: 17 September 2019
Orbit: 529 x 654 km, 98.1° (Epoch: 22 October)

Event Time Altitude Azimuth Distance (km) Brightness Sun altitude
Rises 14:13:28 0° 163° (SSE) 2,823 7.6 -16.5°
Reaches altitude 10° 14:15:40 10° 161° (SSE) 1,899 6.7 -16.3°
Maximum altitude 14:19:46 81° 74° (ENE) 576 3.4 -15.8°
Enters shadow 14:23:02 15° 346° (NNW) 1,539 5.2 -15.5°
